Dania, FL

5:22 PM EST on February 07, 2016 (GMT -0500)
Fort Lauderdale-Hollywood International

Weather History for KFLL - March, 2012

Change the Weather History Date:

Wednesday, March 28, 2012

  Actual Average Record
Temperature  
Mean Temperature 76 °F 74 °F  
Max Temperature 81 °F 81 °F 91 °F (1948)
Min Temperature 71 °F 67 °F 49 °F (1915)
Degree Days  
Heating Degree Days 0 0  
Month to date heating degree days 0 7  
Since 1 July heating degree days 65 109  
Cooling Degree Days 11 9  
Month to date cooling degree days 302 227  
Year to date cooling degree days 720 583  
Growing Degree Days 26 (Base 50)    
Moisture  
Dew Point 61 °F    
Average Humidity 65    
Maximum Humidity 79    
Minimum Humidity 50    
Precipitation  
Precipitation 0.06 in 0.11 in 4.50 in (1940)
Month to date precipitation 1.63 2.96  
Year to date precipitation 3.28 9.55  
Snow  
Snow 0.00 in - - ()
Month to date snowfall 0.0  
Since 1 July snowfall 0.0  
Snow Depth 0.00 in    
Sea Level Pressure  
Sea Level Pressure 30.12 in    
Wind  
Wind Speed 13 mph (ESE)    
Max Wind Speed 21 mph    
Max Gust Speed 26 mph    
Visibility 10 miles    
Events Rain    
T = Trace of Precipitation, MM = Missing Value Source: NWS Daily Summary

Daily Weather History Graph

Daily Weather History Graph

Search for Another Location

Airport or City:

Trip Planner

Search our weather history database for the weather conditions in past years. The results will help you decide how hot, cold, wet, or windy it might be!

Date:

Astronomy

Mar. 28, 2012 Rise Set
Actual Time 7:15 AM EDT 7:35 PM EDT
Civil Twilight 6:52 AM EDT 7:58 PM EDT
Nautical Twilight 6:25 AM EDT 8:25 PM EDT
Astronomical Twilight 5:58 AM EDT 8:53 PM EDT
Moon 11:00 AM EDT (3/28) 12:07 AM EDT (3/28)
Length of Visible Light 13h 06m
Length of Day
12h 20m
Waxing Crescent, 30% of the Moon is Illuminated
Mar 28
Waxing Crescent
Mar 30
First Quarter
Apr 6
Full
Apr 13
Last Quarter
Apr 21
New

Hourly Weather History & Observations

Time (EDT) Temp. Heat Index Dew Point Humidity Pressure Visibility Wind Dir Wind Speed Gust Speed Precip Events Conditions
12:53 AM 73.0 °F - 59.0 °F 61% 30.15 in 10.0 mi East 13.8 mph - N/A   Scattered Clouds
1:53 AM 73.9 °F - 57.9 °F 57% 30.14 in 10.0 mi East 13.8 mph - N/A   Scattered Clouds
2:53 AM 73.9 °F - 60.1 °F 62% 30.12 in 10.0 mi East 13.8 mph - N/A   Scattered Clouds
3:53 AM 73.9 °F - 61.0 °F 64% 30.11 in 10.0 mi East 12.7 mph 21.9 mph N/A   Scattered Clouds
4:53 AM 73.9 °F - 61.0 °F 64% 30.10 in 10.0 mi East 15.0 mph 23.0 mph N/A   Mostly Cloudy
5:53 AM 73.0 °F - 57.9 °F 59% 30.11 in 10.0 mi East 13.8 mph - N/A   Partly Cloudy
6:53 AM 73.0 °F - 57.0 °F 57% 30.12 in 10.0 mi East 17.3 mph 23.0 mph N/A   Partly Cloudy
7:53 AM 73.0 °F - 55.9 °F 55% 30.14 in 10.0 mi ESE 17.3 mph - N/A   Partly Cloudy
8:53 AM 75.0 °F - 57.9 °F 55% 30.16 in 10.0 mi ESE 12.7 mph - N/A   Partly Cloudy
9:53 AM 77.0 °F - 57.0 °F 50% 30.16 in 10.0 mi ESE 16.1 mph - N/A   Partly Cloudy
10:53 AM 79.0 °F - 60.1 °F 52% 30.17 in 10.0 mi ESE 16.1 mph 25.3 mph N/A   Partly Cloudy
11:53 AM 78.1 °F - 61.0 °F 56% 30.17 in 10.0 mi ESE 16.1 mph 23.0 mph N/A   Partly Cloudy
12:53 PM 80.1 °F 81.1 °F 61.0 °F 52% 30.16 in 10.0 mi SE 13.8 mph 23.0 mph N/A   Partly Cloudy
1:53 PM 80.1 °F 81.2 °F 62.1 °F 54% 30.14 in 10.0 mi SE 17.3 mph 24.2 mph N/A   Partly Cloudy
2:53 PM 79.0 °F - 62.1 °F 56% 30.11 in 10.0 mi ESE 12.7 mph - N/A   Partly Cloudy
3:53 PM 79.0 °F - 62.1 °F 56% 30.09 in 10.0 mi SE 12.7 mph - N/A   Scattered Clouds
4:53 PM 73.9 °F - 64.9 °F 73% 30.09 in 10.0 mi ENE 15.0 mph - N/A   Overcast
5:53 PM 73.9 °F - 64.0 °F 71% 30.08 in 10.0 mi East 10.4 mph - 0.00 in   Mostly Cloudy
6:53 PM 73.0 °F - 66.0 °F 79% 30.08 in 5.0 mi SE 6.9 mph - 0.06 in Rain Light Rain
7:53 PM 73.0 °F - 64.0 °F 73% 30.09 in 10.0 mi ESE 9.2 mph - 0.00 in   Mostly Cloudy
8:53 PM 73.0 °F - 63.0 °F 71% 30.09 in 10.0 mi SE 8.1 mph - N/A   Mostly Cloudy
9:53 PM 73.0 °F - 62.1 °F 68% 30.09 in 10.0 mi ESE 9.2 mph - N/A   Mostly Cloudy
10:53 PM 73.0 °F - 62.1 °F 68% 30.10 in 10.0 mi ESE 11.5 mph - N/A   Scattered Clouds
11:53 PM 73.0 °F - 61.0 °F 66% 30.09 in 10.0 mi SE 11.5 mph - N/A   Partly Cloudy